Wind_Gust
10 14 17 20 15 9 9 12 13 10 10 9 7 6 11 12 13 6 8 12 7 12 16 17 11 11 16 18 16 8 9 15 19 16 19 21 23 24 23 27 28 26 25 19 17 17 17 18 19 15 13 12 13 14 15 17 17 20 22 18 17 16 17 19 21 21 21 21 18 17 17 17 14 13 12 13 12 14 14 15 16 15 14 13 13 13
8 15 14 10 12 14 14 12 9 9 4 8 9 9 16 9 16 7 12 9 6 10 13 7 9 14 18 18 14 6 8 17 21 21 22 24 26 27 24 24 25 23 15 16 18 20 20 19 19 16 14 13 14 14 14 16 18 19 20 19 18 15 17 16 18 20 19 20 20 19 18 16 16 14 15 15 14 13 13 14 13 13 13 13 13 13
13 18 14 11 10 10 10 10 9 11 8 6 11 9 13 14 9 11 11 10 8 11 18 6 11 17 21 20 10 10 16 19 18 20 26 29 28 28 28 27 23 18 22 21 19 20 21 20 19 18 16 15 15 15 15 15 16 18 21 18 19 19 19 18 18 20 21 17 18 19 18 18 17 13 13 15 15 14 14 13 13 12 12 13 13 13
13 17 12 10 11 12 8 9 10 8 6 9 8 10 20 7 11 13 7 7 9 11 11 9 16 21 19 11 11 11 13 13 9 9 14 25 29 31 32 31 31 26 28 26 23 22 21 20 19 18 17 16 16 16 15 16 18 19 19 18 21 21 17 17 16 17 17 18 17 15 17 15 14 16 14 13 14 13 13 13 12 13 12 13 13 14
12 7 7 13 13 14 11 8 10 11 13 7 11 13 16 7 11 15 12 8 9 11 8 14 16 19 10 12 9 8 8 11 11 14 16 23 27 27 27 26 30 31 31 28 21 21 21 21 19 19 18 19 18 17 17 18 19 18 18 20 20 21 21 18 17 18 17 18 17 15 15 15 17 15 16 16 15 14 14 14 14 14 13 13 13 13
13 12 9 14 8 7 11 9 11 11 13 8 11 16 14 12 15 14 6 10 12 11 7 7 12 14 7 10 13 14 13 12 9 14 21 24 28 27 25 28 28 26 25 28 23 21 20 18 17 18 20 20 19 18 17 18 18 17 18 19 21 21 20 20 19 21 22 21 19 20 21 21 20 19 19 19 18 17 18 18 14 13 13 13 13 13
14 9 14 13 12 10 12 12 8 13 12 7 13 19 22 19 14 9 8 6 10 10 9 6 11 16 9 13 11 14 16 14 12 14 18 21 26 30 30 30 31 30 25 25 20 19 20 19 18 18 19 19 18 17 17 18 18 19 19 19 19 21 20 20 20 20 17 20 21 21 21 20 21 21 17 16 17 18 16 16 15 14 11 12 14 12
10 7 9 7 10 11 9 14 12 17 12 14 8 10 9 10 12 14 14 15 14 9 11 8 15 19 21 12 8 13 18 17 11 10 13 18 22 27 26 24 23 27 26 24 22 22 21 18 17 16 16 15 16 16 17 17 19 20 20 20 19 16 17 19 21 20 21 22 21 20 20 18 17 17 20 18 17 12 12 16 16 15 13 12 11 11
10 12 13 12 9 11 16 17 11 16 17 11 6 12 12 14 12 10 13 11 8 8 16 8 9 12 15 12 8 11 16 16 13 9 10 13 16 19 21 20 20 23 24 20 19 21 19 16 14 14 15 13 14 16 17 17 18 19 19 20 18 18 18 20 21 23 23 21 21 22 18 15 13 16 18 16 14 14 13 13 11 11 11 10 8 9
7 14 18 16 17 17 14 10 18 20 18 11 11 8 9 9 8 10 10 11 8 9 15 9 10 15 16 11 9 8 9 14 14 18 14 11 14 17 20 15 15 12 12 16 16 13 11 12 12 11 12 14 14 14 14 15 17 18 19 19 18 19 20 21 22 22 22 19 20 19 15 17 16 15 15 14 14 13 13 14 12 11 10 10 9 9
6 6 8 12 20 19 14 9 15 22 13 10 13 10 8 10 8 8 8 7 9 8 19 9 12 12 17 7 9 7 11 13 21 17 16 13 12 14 13 12 7 11 12 11 11 10 10 9 12 11 13 13 12 13 13 14 16 16 18 18 18 19 20 21 24 23 22 20 20 17 17 18 18 16 16 15 13 14 13 14 12 12 10 9 10 10
5 6 7 12 6 7 7 9 6 7 6 6 6 7 9 8 9 7 6 7 8 17 9 9 11 12 17 8 8 10 12 13 16 19 19 14 8 9 8 10 11 10 14 18 21 19 25 18 14 11 11 14 14 13 15 13 14 16 17 19 18 17 17 23 24 23 22 21 18 15 17 19 18 17 16 16 16 16 15 13 13 11 10 9 9 9
10 16 9 8 7 12 9 10 9 8 8 12 9 7 9 8 7 9 11 10 15 18 10 8 9 8 21 11 12 14 17 17 16 17 15 10 8 13 17 16 15 19 20 20 22 20 17 18 17 16 16 15 16 15 15 15 14 14 15 18 19 18 19 23 23 22 18 16 16 16 17 17 17 15 16 17 16 14 15 14 13 12 13 10 10 9
12 8 8 11 7 13 13 20 12 10 15 15 17 15 14 12 8 6 8 7 13 14 8 7 8 14 9 10 14 14 15 15 15 15 11 17 20 19 22 21 19 21 19 14 15 12 14 15 12 11 13 15 14 13 16 14 13 12 13 15 18 18 20 21 21 16 15 14 14 14 15 15 15 13 14 15 16 15 14 14 14 14 14 13 11 11
10 11 17 15 14 14 23 22 19 9 18 21 7 21 13 17 18 12 16 15 16 11 7 8 12 13 13 11 11 12 13 16 17 19 20 19 19 19 18 19 18 16 17 21 19 17 13 9 10 13 10 11 12 11 11 11 12 11 9 10 11 12 14 16 13 15 14 15 15 16 15 15 13 14 13 13 13 15 14 13 14 12 12 13 10 10
11 15 12 12 6 11 20 14 11 12 10 7 8 9 10 14 13 14 7 10 8 8 6 12 12 6 9 9 8 7 17 17 16 19 19 15 15 17 17 15 14 17 18 15 19 19 15 12 10 13 14 13 11 12 11 10 10 13 15 19 22 16 13 14 12 11 13 13 14 15 16 15 14 12 11 10 11 12 14 14 14 12 10 10 10 8
7 11 5 9 7 13 13 13 14 15 16 15 13 17 12 9 13 14 5 9 3 7 10 6 13 9 11 11 12 12 16 18 16 16 16 13 12 15 17 17 16 15 16 16 18 16 19 14 11 15 11 13 12 12 14 13 15 18 18 18 18 17 16 13 14 8 9 9 11 11 12 13 12 13 13 13 13 13 12 11 10 11 9 9 9 10
9 10 6 7 12 8 7 6 5 6 10 20 16 15 10 7 9 11 12 6 5 12 12 7 5 10 10 14 9 15 15 14 16 15 15 15 13 14 13 14 15 17 18 16 16 17 16 15 14 13 12 8 12 16 18 21 20 21 23 26 25 24 24 21 15 11 11 12 11 10 10 10 12 14 12 12 14 12 12 9 9 9 11 10 9 10
8 14 11 7 7 5 7 9 11 5 7 9 7 11 17 9 10 7 10 7 6 8 10 7 7 10 11 8 9 13 14 14 14 13 14 15 15 15 13 14 15 13 12 16 15 14 14 12 14 15 11 10 14 12 18 23 21 20 21 26 30 27 27 23 18 15 10 10 12 12 12 12 12 12 12 10 11 12 12 12 11 10 11 11 11 11
6 9 13 6 8 8 7 7 10 12 6 7 7 12 8 9 6 14 14 9 10 6 4 7 7 10 10 8 10 9 9 8 14 15 16 16 15 14 13 14 14 14 12 14 13 13 13 13 11 12 13 10 15 23 21 21 18 20 20 22 23 22 19 17 16 15 16 13 13 13 13 11 13 14 13 13 14 14 14 14 13 13 12 11 11 10
10 5 9 7 8 7 13 7 7 11 15 11 12 9 9 8 7 11 8 7 13 12 9 7 9 11 10 8 7 7 6 7 8 14 12 15 16 15 14 13 13 14 12 13 13 13 12 10 11 12 11 18 13 16 18 17 20 19 16 13 17 21 18 18 17 17 16 13 12 13 13 13 13 13 14 14 14 14 14 12 12 12 12 13 11 11
14 8 14 10 12 8 9 6 7 8 6 7 13 18 17 17 15 13 12 8 7 12 11 10 12 10 11 7 8 7 6 6 5 8 12 11 15 16 15 16 17 14 13 11 13 13 13 11 11 14 15 12 20 23 22 18 14 14 15 16 16 20 19 17 16 16 17 15 15 14 14 14 13 14 14 14 13 12 12 12 12 12 13 13 12 11
10 11 8 7 10 5 5 7 6 8 9 7 7 6 7 7 9 16 17 10 7 7 8 8 5 7 8 8 9 10 11 11 11 12 8 6 12 16 16 13 17 14 13 13 12 12 13 12 10 8 11 11 9 13 18 20 15 11 11 15 15 16 17 18 18 14 14 13 14 14 13 14 13 13 14 14 13 12 12 12 12 13 14 14 13 10
7 10 11 7 8 10 10 8 6 6 6 8 10 8 6 11 6 10 11 11 14 10 10 7 10 11 7 12 10 12 14 15 14 13 14 15 15 17 18 15 15 15 10 12 13 13 14 13 10 8 6 6 8 13 16 17 17 16 15 15 14 15 16 16 17 17 15 13 13 12 13 12 13 14 14 13 12 12 11 12 11 11 12 13 13 13
16 7 9 8 9 10 7 8 6 6 9 9 6 8 8 7 7 5 10 6 9 11 8 13 14 8 8 10 11 14 17 17 17 16 15 15 16 16 16 15 14 14 15 13 13 13 15 13 10 9 9 10 11 11 11 9 13 14 12 13 11 13 13 12 14 16 16 15 15 13 13 13 12 13 13 12 11 11 12 12 12 11 13 13 13 12
7 6 9 10 13 13 12 11 12 9 6 9 6 11 11 10 7 10 8 10 14 9 8 9 9 8 8 11 12 16 18 19 17 17 17 16 14 15 15 16 15 16 15 14 14 14 12 11 9 10 11 12 12 13 13 13 12 13 13 12 10 15 14 11 11 12 14 14 16 15 15 15 13 12 12 12 12 11 11 12 12 12 10 11 13 11
10 7 7 7 12 15 9 7 6 6 6 8 9 13 15 11 10 7 8 9 17 10 10 8 8 15 13 13 12 15 16 15 15 16 17 15 16 17 16 17 17 16 16 16 15 13 12 14 10 10 12 14 14 13 15 14 14 14 11 11 10 9 11 11 11 11 13 13 13 14 13 14 14 14 14 13 13 12 12 13 13 13 13 11 12 11
9 11 8 11 14 8 7 7 5 7 9 9 11 13 14 15 11 7 9 12 10 19 10 8 12 19 12 12 12 14 14 16 15 16 15 16 17 17 17 17 16 18 17 16 19 18 16 14 14 14 14 15 16 16 15 15 15 14 12 14 13 14 14 12 12 12 12 12 11 11 12 13 13 13 14 15 15 15 13 12 13 14 13 12 12 10
12 9 9 8 10 10 9 9 12 17 16 14 14 15 17 16 14 9 9 8 10 9 11 16 16 13 9 11 13 13 13 17 16 16 15 16 17 17 18 19 19 19 19 22 20 19 20 19 18 16 14 16 17 17 17 16 15 16 15 15 16 17 17 15 15 15 14 16 17 16 14 13 13 14 16 17 18 16 14 12 11 11 11 12 12 9
14 8 6 7 12 11 12 10 8 17 13 15 17 16 15 16 16 14 14 12 7 7 15 23 18 16 11 13 13 12 12 16 17 16 17 19 20 20 20 21 21 22 23 23 20 19 19 19 19 18 19 19 19 18 17 18 17 14 13 14 15 17 15 15 15 15 15 15 15 15 16 17 14 13 13 15 16 14 13 11 9 9 10 10 9 9
6 7 7 6 8 4 10 9 9 10 11 18 17 17 16 13 15 15 13 14 14 18 18 19 18 13 11 12 14 14 15 16 18 21 21 19 19 19 21 21 20 20 20 20 20 20 20 20 17 17 18 19 19 19 20 19 18 17 17 15 17 19 17 17 18 18 18 18 14 13 15 15 14 13 13 11 12 12 12 11 10 10 11 10 8 9
9 7 5 6 7 5 7 10 7 9 13 16 17 20 18 15 12 12 9 9 8 11 16 17 13 11 10 14 16 17 19 21 21 19 19 19 18 18 21 21 20 20 22 22 20 19 22 21 20 20 20 19 21 21 20 18 18 19 18 18 21 18 20 23 22 20 18 16 12 13 13 13 13 13 11 11 10 10 10 7 6 6 7 8 8 8
7 17 11 7 9 6 6 8 8 7 7 6 11 15 14 8 6 7 9 13 9 9 13 10 9 12 13 13 19 17 18 18 20 20 19 20 20 20 20 20 21 21 21 21 24 24 22 20 18 18 19 20 21 22 19 19 23 21 18 19 16 19 22 22 21 20 18 17 16 15 14 14 15 16 15 13 9 10 8 9 8 8 8 7 6 6
7 14 10 6 8 5 6 9 6 7 14 10 6 10 8 8 7 9 10 10 13 8 10 13 17 15 14 14 19 17 21 21 22 21 18 17 15 17 19 20 19 17 18 23 25 24 21 20 19 17 19 19 20 19 17 21 21 18 17 19 21 23 23 24 22 20 18 17 16 16 16 16 17 16 13 13 13 11 10 10 11 9 8 7 7 8
9 11 8 7 8 8 4 3 7 13 6 8 5 8 9 13 16 17 12 13 13 16 20 20 18 17 17 18 17 16 21 23 23 22 21 19 17 17 18 20 20 20 21 20 23 22 20 19 16 17 19 21 20 16 20 22 18 19 22 22 24 21 23 22 23 21 19 20 17 15 14 16 17 16 14 13 13 12 15 15 14 14 12 11 10 10
10 12 10 8 7 7 6 6 9 5 6 6 5 8 7 6 6 6 12 14 12 11 16 20 17 19 19 19 18 18 22 22 23 22 21 21 18 16 17 19 19 18 19 17 18 19 20 18 17 16 16 13 18 21 22 19 15 22 22 22 23 22 22 24 24 20 18 18 17 16 15 16 16 15 14 13 14 15 15 15 14 12 10 10 12 13
14 12 9 11 7 7 6 8 9 7 7 4 5 9 13 9 10 6 7 8 8 6 12 21 18 17 19 19 20 20 19 22 27 22 21 20 20 18 17 17 16 16 16 18 19 18 13 16 17 17 14 16 20 22 21 16 16 18 22 23 20 22 22 24 22 19 17 16 16 17 16 16 17 15 14 14 16 16 14 13 12 12 10 12 13 15
9 6 5 9 5 5 10 12 11 7 7 6 4 6 4 7 8 10 6 7 7 10 13 20 22 19 18 18 16 18 13 27 22 14 13 15 16 17 18 17 16 15 15 13 14 15 16 17 18 18 18 20 22 20 17 16 17 18 21 21 20 22 24 25 21 17 18 18 17 16 15 15 16 16 15 15 16 14 12 11 12 14 12 14 14 15
16 15 10 9 8 7 5 8 6 6 4 4 12 13 11 10 9 7 6 7 6 11 13 17 21 17 16 16 15 7 9 18 13 10 6 10 12 14 15 16 17 15 13 15 14 16 16 18 18 19 19 22 22 20 17 17 18 21 22 20 19 20 22 22 19 18 18 17 16 17 17 16 16 16 16 15 14 12 14 14 13 12 13 15 16 15
17 12 7 13 9 7 5 6 7 8 7 9 14 15 16 11 8 9 7 6 11 16 16 17 20 19 14 8 4 5 8 23 18 14 9 11 12 12 14 15 16 15 14 12 14 13 15 15 19 20 19 20 19 16 16 16 19 20 19 18 17 21 20 18 17 16 16 16 17 17 17 17 17 16 16 15 14 14 12 10 11 13 13 13 14 16
12 12 14 11 6 8 7 9 10 7 5 9 15 20 17 9 9 7 7 5 16 19 19 18 18 13 8 6 5 9 11 13 20 17 12 12 14 15 14 13 12 11 12 12 12 10 14 16 17 17 16 15 16 15 14 16 20 18 17 16 19 19 17 15 15 16 17 17 18 18 18 18 18 18 17 15 14 13 14 15 14 12 12 11 11 12
9 6 6 5 11 9 7 7 9 8 5 14 18 17 11 6 5 9 9 7 19 20 20 19 18 10 7 10 15 19 20 21 19 15 13 12 14 13 14 12 11 11 11 12 11 12 14 15 16 16 17 14 15 15 15 16 19 16 15 17 19 15 13 13 14 15 16 18 18 17 17 17 16 15 15 15 15 15 16 15 15 14 13 12 12 13
10 9 6 8 5 5 5 8 5 6 6 17 24 11 12 7 8 11 10 10 14 18 20 16 12 11 15 19 19 23 23 20 17 15 14 15 15 15 14 12 10 8 9 12 13 12 12 14 15 17 16 16 15 14 13 14 16 15 14 18 14 12 13 13 14 15 16 16 17 16 17 17 17 16 15 15 15 15 15 14 15 14 14 12 12 13
5 9 7 7 9 5 9 9 7 9 17 18 15 8 10 10 13 12 6 15 12 13 13 11 11 13 18 25 22 19 19 20 17 16 15 13 13 11 10 10 10 11 11 11 12 11 12 14 13 13 13 14 14 14 14 15 16 15 16 15 12 12 12 14 14 16 17 17 17 17 17 17 17 17 16 16 15 15 15 15 14 15 15 14 13 13
18 13 8 12 9 10 10 8 7 7 10 12 11 8 7 11 10 6 9 10 14 11 9 14 15 16 17 23 22 22 20 15 17 16 16 14 14 13 12 11 10 10 11 11 12 11 12 14 14 14 14 14 14 14 14 13 15 15 16 12 11 12 13 13 13 14 15 16 16 14 13 14 16 16 16 16 16 16 16 15 15 15 14 13 13 13
7 9 7 15 17 16 19 12 7 10 13 13 13 12 12 10 13 13 13 15 12 11 13 16 12 16 16 17 23 16 18 18 17 15 14 13 13 12 12 12 12 11 12 13 13 12 13 14 14 16 16 14 12 12 12 12 11 14 10 8 9 9 11 12 13 14 14 14 14 14 14 15 14 14 14 13 14 14 13 13 14 14 13 13 13 13
10 5 7 10 8 8 13 11 13 13 13 14 15 17 16 16 15 15 18 15 15 16 19 14 13 14 14 14 18 20 19 18 17 14 13 13 13 12 12 13 11 11 12 13 11 12 15 15 17 16 16 16 12 12 12 12 12 12 11 11 10 11 11 12 12 12 12 14 14 14 15 15 14 13 14 13 12 13 13 13 12 11 11 11 11 11
10 7 15 12 13 12 11 11 15 16 15 14 14 16 18 19 21 19 19 18 18 18 18 16 17 16 14 17 16 17 15 14 18 16 14 12 12 12 11 12 12 12 10 11 11 13 15 16 16 16 16 16 14 13 13 13 13 11 10 10 10 10 10 11 11 12 12 12 11 12 12 13 8 11 13 13 13 13 13 13 12 12 13 12 12 10
9 10 8 7 15 16 14 13 17 18 18 16 16 15 15 16 19 20 20 21 21 21 19 17 15 13 14 14 15 15 13 9 12 14 15 13 11 10 10 11 11 11 12 13 11 12 15 13 14 13 14 14 12 12 13 13 12 11 11 9 9 10 12 12 12 12 12 11 12 13 12 12 14 14 14 13 13 15 15 14 13 12 11 12 12 11
9 17 8 8 15 10 10 13 7 9 11 12 14 16 17 16 19 20 19 20 19 19 18 16 12 9 8 9 13 13 14 11 9 10 13 12 11 11 10 11 11 11 12 10 10 11 12 11 11 11 11 11 9 10 11 11 11 10 10 10 10 10 12 12 13 13 14 14 13 13 13 12 13 13 13 14 14 12 13 6 4 9 12 12 6 2
10 8 7 5 9 13 9 8 5 12 12 11 13 12 13 13 17 17 17 17 17 19 18 17 14 9 8 6 6 13 12 12 11 9 12 11 10 9 9 10 11 11 11 10 12 12 12 11 10 10 10 10 9 9 9 9 9 10 11 11 11 12 13 13 14 15 16 16 16 15 14 14 14 15 15 15 15 14 14 13 13 6 4 7 6 5
Wind_Speed
2 6 7 9 7 4 5 7 8 4 4 4 2 2 5 5 6 1 4 6 3 5 8 9 6 6 9 11 9 2 2 7 8 9 11 12 13 14 13 16 17 16 13 10 9 9 9 10 10 8 6 6 7 8 9 10 10 11 11 11 10 9 6 5 8 8 9 9 8 8 8 8 7 6 6 5 5 6 6 7 7 7 6 6 6 6
3 6 7 4 7 9 9 7 4 5 0 3 4 4 7 4 7 2 6 4 1 4 6 2 4 8 11 11 7 1 3 9 11 12 13 15 16 15 15 15 16 14 8 10 10 10 9 9 12 9 7 7 8 8 9 10 10 11 12 12 10 8 10 9 8 8 9 9 9 8 8 8 7 6 6 6 6 6 6 6 6 6 6 6 6 6
5 8 7 6 4 5 5 5 5 7 4 2 4 3 6 6 2 6 5 5 2 5 8 1 5 9 12 12 5 4 9 10 8 12 15 16 17 16 16 17 15 11 13 13 11 13 12 12 12 10 8 8 8 9 9 9 10 11 12 10 12 10 10 10 8 8 8 8 9 9 8 9 7 6 6 7 7 6 6 6 6 6 5 6 6 6
5 8 7 5 6 7 4 4 6 4 2 4 3 4 8 2 4 3 2 2 4 3 4 4 8 10 11 5 6 4 6 6 3 3 8 14 17 18 19 19 18 16 16 17 14 14 12 12 11 10 9 9 9 9 9 9 11 10 11 9 12 12 10 9 10 8 9 10 9 8 9 8 6 7 6 7 7 6 6 6 6 6 6 6 6 6
4 3 3 8 8 9 6 4 6 5 5 3 6 6 7 2 5 6 3 2 4 6 3 8 7 8 4 5 2 3 2 5 5 7 9 13 16 16 15 15 17 20 20 17 13 13 13 13 11 10 10 10 10 10 10 10 10 9 11 12 13 12 11 10 10 11 10 9 9 8 8 7 7 7 7 7 6 6 7 6 6 6 7 6 6 6
6 3 5 8 4 4 6 4 6 5 6 3 7 10 9 8 9 8 1 4 4 4 2 2 3 5 1 3 6 4 4 4 3 7 13 15 17 16 14 16 17 17 16 17 14 13 12 11 10 11 12 12 11 10 10 10 10 10 10 12 13 11 10 10 12 12 11 11 10 10 10 10 9 9 9 9 9 8 8 8 7 6 6 6 6 6
5 5 8 8 7 6 7 6 4 8 5 2 4 12 14 12 8 3 3 1 3 3 3 2 4 3 1 6 5 4 6 8 5 7 10 12 14 16 16 16 17 17 15 16 12 11 12 12 11 11 11 11 11 10 9 10 11 12 11 12 11 11 10 10 11 13 9 11 11 12 11 11 10 10 8 7 8 9 7 7 7 6 5 6 6 6
4 3 5 3 5 5 4 6 5 10 5 4 1 4 5 5 7 8 8 7 5 4 4 3 5 7 8 4 2 5 9 9 5 5 6 9 12 15 15 14 14 15 16 14 14 14 13 11 10 10 9 9 9 9 10 10 11 13 12 12 12 9 10 10 11 12 12 12 11 11 10 9 9 9 10 9 8 6 6 8 8 7 6 5 5 5
6 6 8 7 5 4 7 9 6 10 6 2 2 6 7 8 6 4 5 4 2 2 6 2 4 3 5 3 1 3 8 7 3 3 1 4 7 10 13 11 12 13 15 12 8 11 11 7 7 7 7 7 8 9 10 9 10 11 11 12 11 11 10 10 13 13 13 11 11 10 9 7 5 8 9 8 6 7 6 7 5 5 5 4 3 3
2 7 11 10 8 7 7 4 11 12 8 4 5 3 4 4 3 5 3 4 3 3 6 3 4 5 6 3 2 1 3 7 7 10 7 3 4 6 9 8 7 6 3 6 6 5 3 3 5 5 5 6 7 7 8 9 10 10 11 12 12 12 11 12 13 12 13 12 10 10 8 9 7 6 6 6 6 6 7 7 5 4 4 3 3 3
2 2 2 4 9 9 8 3 8 14 7 5 8 5 3 3 2 2 1 1 3 2 8 4 7 5 6 2 3 1 4 5 10 8 8 7 1 3 5 5 2 3 6 5 5 6 5 4 5 6 6 6 6 6 7 8 8 9 10 11 12 12 11 13 14 14 14 11 12 9 10 11 11 9 8 7 6 6 6 6 6 5 4 3 4 4
1 3 2 4 2 3 2 4 1 2 2 1 1 1 2 2 1 2 1 1 2 5 1 3 5 7 7 2 2 4 6 7 8 11 10 7 2 3 2 5 7 6 8 10 9 10 12 10 8 5 4 6 7 7 7 7 7 8 9 11 12 11 10 13 13 14 13 12 10 8 10 11 10 10 8 9 8 8 8 7 6 4 4 3 3 3
5 7 2 4 2 7 4 5 3 3 3 5 3 1 3 1 0 2 3 3 5 5 4 2 4 2 9 3 5 7 8 9 8 7 5 3 2 7 10 10 9 11 13 12 13 10 10 11 11 9 7 7 8 8 8 8 7 7 8 11 11 11 10 12 14 14 11 10 9 8 10 10 9 8 9 9 8 7 7 6 6 5 5 4 3 3
3 1 1 5 1 6 7 8 4 3 6 7 7 6 5 3 2 1 2 1 4 3 1 2 3 5 3 2 7 7 8 8 8 7 6 9 11 11 13 12 11 12 11 6 8 7 3 4 6 7 8 8 7 7 8 8 7 7 6 7 9 9 10 8 12 10 9 8 8 8 8 8 8 7 7 8 8 7 6 6 7 6 6 6 5 4
3 4 7 8 5 8 11 10 10 3 9 9 3 9 4 7 5 3 5 5 6 4 2 3 5 3 6 4 5 6 7 8 7 9 9 10 11 10 10 11 10 9 10 11 10 9 7 5 6 7 6 6 6 5 6 6 7 6 3 1 4 7 3 4 5 8 8 8 8 8 8 8 6 7 6 6 6 7 6 6 7 5 5 6 4 4
6 5 3 6 2 6 12 8 5 6 4 2 1 1 1 4 1 5 0 3 2 2 1 4 2 1 1 2 2 2 9 8 9 11 9 7 8 10 8 7 6 5 4 5 9 11 9 7 6 7 8 7 5 7 5 5 5 7 8 9 11 10 8 6 1 1 7 6 7 9 9 8 7 5 5 4 5 5 7 7 7 6 4 4 4 3
1 3 0 2 3 8 7 6 6 7 5 5 5 7 4 3 4 5 2 4 1 1 2 2 4 2 3 4 6 6 9 9 9 9 8 6 6 7 7 6 5 6 8 7 7 9 12 9 7 9 7 7 6 6 8 8 9 11 11 12 12 11 9 8 9 4 2 4 4 5 5 6 6 7 7 6 8 7 5 5 4 4 4 3 3 3
2 1 1 2 8 3 3 2 1 1 3 7 6 4 4 1 3 2 3 1 0 4 2 1 0 2 2 2 3 7 7 8 9 9 9 7 7 8 6 7 6 7 9 9 10 7 9 10 9 8 7 4 7 10 11 12 10 10 13 17 17 16 16 14 9 7 6 7 6 6 5 5 6 7 7 6 7 6 5 4 3 4 4 4 3 3
3 5 3 3 2 2 2 5 5 1 3 2 2 5 5 2 4 2 1 2 2 1 2 2 1 3 4 2 3 6 7 8 9 8 8 9 9 9 8 9 8 7 6 5 7 7 7 7 9 9 7 6 8 7 11 12 12 10 9 13 17 18 17 15 11 10 6 6 6 6 7 7 6 6 6 5 6 6 6 6 5 5 5 5 5 4
1 2 3 1 3 3 1 1 3 5 1 3 2 4 3 2 1 4 2 1 2 1 0 1 1 2 2 2 4 4 3 4 8 9 9 9 9 7 7 8 8 8 6 4 6 5 6 7 7 7 7 6 10 14 12 11 9 12 11 10 10 11 11 11 10 9 10 7 7 7 7 6 6 7 7 6 7 6 7 7 7 6 6 5 4 4
2 0 2 1 3 2 5 1 2 4 6 4 4 2 2 2 2 2 2 1 3 1 2 1 2 2 3 2 1 2 1 2 4 8 7 8 9 8 8 7 7 8 7 6 6 3 4 5 6 6 6 9 7 7 11 9 11 9 8 7 8 10 10 11 11 10 9 7 7 8 8 8 7 7 7 7 7 7 7 6 6 6 6 6 5 4
2 1 4 2 3 3 2 1 1 2 2 1 5 7 7 8 6 6 4 2 1 3 2 3 3 3 4 2 3 2 1 2 1 4 5 6 8 8 7 9 10 6 7 6 4 5 5 6 6 8 7 7 12 12 11 7 5 7 8 8 8 9 9 8 7 8 9 8 7 8 8 8 7 7 7 7 7 6 6 6 5 6 6 7 5 5
2 2 2 2 3 1 0 3 2 3 2 2 1 1 1 1 0 6 6 3 1 1 2 1 1 1 2 3 4 4 5 5 5 5 3 2 6 8 8 7 9 7 5 8 7 5 6 7 5 4 6 4 3 6 10 7 5 5 6 8 8 9 9 10 10 8 6 7 7 8 7 8 7 7 8 8 7 6 6 5 5 6 7 7 6 4
2 1 4 1 2 3 4 1 2 1 2 3 4 3 0 4 0 3 3 4 4 4 3 2 2 2 2 6 5 7 8 8 7 7 8 8 8 9 10 9 8 8 5 7 6 4 7 8 6 3 2 1 3 6 10 9 9 8 7 8 7 8 8 9 10 9 8 7 7 7 7 7 7 8 8 7 6 7 6 5 5 5 6 6 6 5
2 1 2 2 2 2 2 3 2 2 2 3 1 3 3 2 1 1 3 1 2 4 1 5 4 2 3 4 5 8 10 10 9 9 8 8 7 8 9 9 8 8 7 7 6 6 9 8 6 4 5 5 5 5 4 2 6 6 6 6 6 7 8 6 7 9 9 9 9 8 7 7 7 7 7 6 5 6 6 6 5 5 6 6 6 5
2 1 2 3 5 5 4 3 4 3 1 2 1 4 5 5 1 4 2 3 4 3 3 2 2 3 3 5 7 10 11 10 9 9 9 9 8 8 8 9 9 9 8 8 8 8 7 6 5 4 5 5 5 6 4 4 2 6 7 6 6 8 7 5 4 6 8 8 9 8 9 8 7 7 7 7 6 6 6 6 6 5 4 4 6 5
3 2 2 0 3 4 2 2 2 2 1 2 4 7 8 5 5 2 2 2 6 4 4 1 2 7 7 5 7 8 8 8 8 8 8 8 9 10 10 10 10 9 9 10 9 7 7 8 6 5 7 7 6 8 7 5 5 4 6 7 6 5 6 6 4 5 6 6 7 8 7 8 8 7 7 7 7 6 6 7 7 6 6 5 5 5
2 3 3 5 8 3 2 2 1 2 3 4 5 6 7 8 5 2 3 2 5 7 3 3 7 10 6 7 7 7 8 9 8 8 8 8 9 9 10 10 11 11 9 9 10 11 10 9 9 8 8 8 8 7 7 6 5 6 6 7 7 8 7 5 6 6 6 6 5 5 6 7 7 7 7 8 8 8 7 6 7 7 6 5 5 4
4 2 1 2 5 5 4 4 7 9 9 7 7 8 10 9 8 4 4 3 6 3 2 9 10 7 4 5 6 7 8 9 9 9 9 9 9 10 10 12 12 11 12 13 12 12 12 11 8 9 9 9 10 11 10 9 8 9 8 9 9 10 9 8 8 8 7 8 8 8 7 7 7 7 9 9 9 9 7 6 5 6 5 5 5 3
4 2 1 2 7 6 7 5 3 10 7 9 10 10 9 10 9 8 8 6 2 1 8 14 12 10 5 5 6 7 7 10 10 9 10 11 11 11 12 13 13 13 13 13 13 12 11 10 11 11 11 12 12 11 10 10 9 8 7 8 8 8 7 6 7 8 8 8 8 8 8 8 7 6 7 8 8 8 7 5 4 5 5 5 4 4
1 1 3 1 2 2 5 4 4 5 7 11 10 10 10 7 9 9 7 8 8 11 11 12 12 7 5 7 8 8 8 9 10 13 13 12 11 11 12 13 12 13 13 13 13 12 12 12 11 11 11 12 12 11 11 10 10 10 10 8 9 11 9 10 9 10 9 10 8 7 8 7 6 6 7 6 5 5 6 6 5 6 6 5 4 1
2 2 1 1 2 1 2 5 3 4 8 10 10 13 11 9 6 6 4 4 4 6 9 10 6 4 4 8 10 10 12 12 12 12 11 11 11 11 12 12 13 13 14 14 12 12 13 13 13 11 11 12 13 13 12 10 9 10 10 9 10 9 11 13 12 11 10 8 6 7 7 6 7 6 6 6 5 4 5 4 4 3 3 3 3 4
1 7 3 2 3 2 2 3 3 3 2 2 6 8 8 4 2 3 5 8 4 4 6 5 3 5 7 6 10 10 11 12 13 11 11 12 12 12 12 13 12 12 12 13 14 15 14 12 11 11 11 12 12 12 11 10 12 10 8 9 8 10 12 12 11 10 10 10 9 8 7 6 7 7 6 5 5 4 3 3 3 2 3 3 2 3
2 6 3 1 2 1 2 4 2 2 6 1 1 5 4 3 3 4 4 5 8 4 3 6 8 8 8 8 10 10 13 12 12 13 11 9 8 11 12 12 12 11 11 14 15 14 13 12 11 10 11 12 12 11 10 12 12 9 9 10 10 13 12 13 12 11 10 10 9 9 8 8 9 9 6 5 5 5 5 5 5 4 3 1 2 2
3 4 2 1 2 3 1 0 2 6 1 3 1 3 5 8 10 10 6 8 7 10 13 12 11 11 11 11 10 10 12 13 14 13 12 12 11 10 11 12 12 13 13 12 14 13 12 12 10 11 12 12 12 10 11 12 9 10 12 12 13 11 13 12 12 11 10 11 10 8 7 8 9 8 7 6 6 6 8 7 7 7 5 4 4 4
4 4 3 3 2 2 2 1 2 1 3 2 0 4 3 2 2 2 7 8 7 6 10 12 10 12 12 12 11 11 11 14 15 14 13 13 11 10 10 10 12 12 12 11 11 12 12 10 10 10 9 7 10 12 13 10 8 12 12 12 12 12 12 13 13 11 10 11 9 9 8 9 9 8 7 7 7 8 7 8 7 6 4 4 5 6
7 5 1 4 2 2 2 3 4 3 3 1 1 4 5 4 5 2 2 3 5 2 7 12 11 11 12 12 12 10 10 12 14 11 13 13 13 12 11 11 10 10 10 11 12 12 8 9 11 11 8 9 11 13 11 9 9 10 12 13 11 12 13 14 13 10 9 9 9 9 9 8 9 8 7 7 9 8 7 6 6 5 3 5 6 7
4 2 0 1 1 1 4 4 4 2 2 2 1 3 1 4 4 6 1 3 2 5 7 12 14 12 12 12 9 11 8 13 11 7 7 9 10 11 11 11 10 9 9 8 9 9 8 8 10 11 10 11 14 12 10 9 10 10 12 12 11 12 13 14 12 9 9 9 8 8 8 8 8 9 8 8 9 7 6 5 5 6 4 6 6 7
8 7 4 2 2 2 2 2 2 2 1 1 7 7 6 4 5 3 2 2 2 7 8 10 13 11 10 10 9 2 0 8 5 4 2 6 7 8 9 10 10 10 8 9 9 8 9 9 9 10 12 14 14 12 11 10 11 12 13 11 10 11 12 12 10 10 9 9 8 9 9 8 9 8 8 8 7 6 7 7 5 5 5 7 7 7
9 4 1 4 3 3 1 2 3 3 2 5 8 9 9 6 4 3 1 2 5 9 10 10 12 12 9 5 2 2 2 10 7 6 5 6 8 8 8 8 8 7 8 7 8 8 9 8 11 12 12 12 11 9 10 10 11 12 11 10 9 12 11 10 9 8 8 8 8 8 8 8 9 9 8 8 7 7 6 4 4 6 6 5 6 7
4 4 6 5 2 3 4 3 3 2 1 5 9 12 10 4 3 2 3 1 8 10 11 10 11 8 4 1 1 3 5 6 10 9 6 7 9 9 8 7 7 7 7 7 7 7 8 9 9 10 10 9 9 9 8 9 11 10 9 9 11 12 9 8 7 8 9 8 9 10 10 9 9 9 9 7 6 6 6 6 6 5 5 4 4 5
3 2 1 1 5 3 2 2 3 3 1 7 10 10 6 2 1 2 3 2 10 12 12 12 11 6 4 6 8 9 10 12 12 8 7 6 8 7 8 7 6 7 7 7 7 8 8 8 9 10 10 9 9 9 8 9 10 9 8 9 11 9 7 7 7 7 8 9 9 9 9 9 8 7 7 7 7 7 7 7 7 6 6 5 5 6
4 2 2 3 1 1 1 3 1 2 2 10 16 5 6 3 3 4 3 5 7 11 12 10 6 6 9 11 12 14 14 12 10 9 8 7 7 8 7 6 6 5 5 7 8 7 7 8 9 10 10 9 8 7 7 8 10 9 8 10 8 6 6 6 7 8 8 8 9 9 9 9 10 8 6 7 7 8 7 6 7 7 6 5 5 6
2 1 2 2 3 1 3 3 2 3 7 10 8 3 5 4 6 6 1 7 6 7 7 5 6 7 10 14 13 11 12 12 10 9 9 7 7 6 6 6 6 6 6 6 6 6 7 8 7 8 8 8 8 8 8 8 9 8 9 9 6 6 6 7 7 8 9 8 8 9 8 9 9 8 8 8 7 7 7 7 6 6 6 6 5 5
9 5 2 4 3 3 3 3 3 3 5 6 6 3 3 6 5 2 4 5 7 5 5 7 9 10 11 14 14 13 11 9 11 10 9 8 8 7 6 5 5 5 6 6 6 6 7 8 8 8 9 7 8 7 7 7 8 9 10 6 5 6 7 7 7 7 8 8 8 7 6 7 7 8 8 8 8 8 7 7 7 6 6 5 5 5
2 4 2 6 7 9 10 6 3 5 7 7 7 7 7 6 8 8 8 8 7 6 7 8 7 10 9 10 13 9 10 11 10 9 8 8 7 6 6 6 6 5 6 7 7 6 7 7 8 9 9 8 7 7 6 6 6 8 6 4 4 4 5 6 7 7 7 7 7 7 6 7 7 7 6 6 6 6 6 6 6 5 5 5 5 5
4 1 1 3 2 2 5 7 7 8 7 8 9 10 10 10 9 8 11 9 8 9 11 8 8 9 8 8 11 12 11 11 10 8 8 7 7 7 7 6 5 5 6 7 6 6 7 8 9 9 10 10 7 6 6 6 6 6 5 5 4 5 5 6 6 6 6 6 7 7 7 8 6 5 6 6 5 5 5 5 4 4 4 4 4 3
4 3 6 6 7 5 4 5 9 9 9 8 6 8 10 11 13 12 11 11 11 11 10 9 11 10 8 10 10 10 9 8 11 9 7 6 6 6 6 6 7 6 5 5 6 7 8 8 9 9 9 9 7 6 6 7 6 5 4 4 4 4 4 5 5 5 5 5 5 5 5 5 5 5 5 5 5 5 5 4 4 4 4 4 4 3
3 4 2 2 6 7 8 8 10 11 11 10 9 8 7 7 9 11 12 12 13 13 11 10 9 8 8 8 8 9 8 5 7 8 8 6 5 4 4 5 5 6 6 7 5 6 7 7 7 7 8 7 5 6 6 6 6 5 5 4 3 3 4 5 5 5 6 5 5 5 4 5 5 6 5 5 5 6 6 5 4 4 4 5 4 3
0 7 1 2 7 4 4 6 3 2 3 5 8 10 10 10 12 12 11 12 11 11 10 10 8 5 4 5 7 7 8 6 4 5 7 5 5 5 5 5 5 6 6 5 4 5 6 5 5 5 5 5 3 4 5 5 5 4 4 3 3 4 5 5 5 6 6 6 6 5 5 5 5 5 5 5 4 4 5 5 3 5 4 3 4 1
4 1 1 1 3 5 3 3 1 6 7 6 7 7 7 8 10 10 10 10 9 10 11 11 9 5 4 2 1 6 7 7 6 4 6 5 4 3 4 5 5 5 5 4 6 6 6 5 5 5 5 3 3 3 3 3 3 3 4 4 4 5 6 6 6 6 7 7 7 6 6 6 6 6 6 5 5 5 5 4 5 6 3 5 4 4
Wind_Direction
188 171 189 198 203 150 169 192 199 174 137 113 138 235 263 272 264 207 243 263 236 277 265 273 270 255 271 274 278 284 288 236 229 191 189 193 197 197 198 202 203 201 205 189 199 207 192 189 195 191 176 162 151 153 154 159 166 171 169 152 150 130 112 135 159 160 159 163 155 166 163 157 152 153 155 159 165 175 178 178 177 176 178 178 175 178
172 207 218 198 137 171 187 185 121 109 348 210 250 260 274 235 281 104 279 262 45 226 264 213 257 262 262 273 277 55 230 234 218 203 200 197 198 202 204 202 203 204 209 195 207 215 205 194 193 182 180 175 166 162 163 168 173 170 167 161 143 130 140 154 177 172 166 169 169 165 163 154 154 154 160 163 169 175 173 175 175 175 178 173 173 174
196 210 207 165 175 84 80 136 165 173 169 163 229 259 271 264 291 261 258 286 248 197 257 239 270 274 276 273 306 254 240 240 225 204 199 193 196 204 210 208 198 197 206 203 205 204 207 202 189 182 176 179 175 166 170 172 167 166 164 148 147 152 149 158 173 176 177 171 168 165 159 156 151 160 161 161 166 169 170 170 170 175 173 170 172 171
204 230 216 180 143 128 76 119 147 112 146 193 191 225 254 45 325 284 193 61 157 216 296 283 288 283 280 296 269 254 247 273 329 284 223 204 200 202 204 203 203 201 202 208 195 196 197 197 190 182 176 172 169 164 168 175 168 163 166 150 152 158 153 159 178 180 180 175 165 154 155 151 149 154 153 154 156 162 163 164 169 172 170 173 176 175
190 355 138 140 173 160 160 153 148 194 224 200 226 236 257 230 229 231 290 326 276 246 237 264 271 268 252 289 244 180 253 283 270 234 227 220 216 212 209 203 203 204 202 205 194 194 194 193 191 180 173 169 167 169 171 175 166 163 156 156 156 159 161 167 180 183 164 150 139 136 141 139 132 137 149 150 152 158 160 155 165 165 168 172 173 171
226 183 125 130 145 177 131 159 199 181 242 231 215 224 240 229 236 225 13 322 311 290 127 252 261 249 151 266 255 282 312 290 289 231 217 213 212 213 208 206 208 210 208 209 203 196 195 194 181 179 174 171 168 170 174 175 161 155 153 158 161 159 156 174 181 167 160 163 153 150 151 155 157 157 163 167 161 159 162 161 152 155 167 165 165 169
227 139 176 159 163 180 195 201 198 189 237 245 252 196 218 226 227 119 162 157 259 245 100 312 312 280 292 271 261 296 294 274 275 242 228 212 215 212 210 206 205 200 197 208 207 193 193 194 182 179 178 173 168 170 166 160 155 154 158 161 162 165 158 171 170 163 161 162 165 167 168 168 167 163 165 161 159 159 151 144 150 150 158 165 164 166
143 146 168 132 159 165 174 223 192 186 193 230 251 167 196 195 207 203 198 214 251 345 271 165 234 265 286 272 219 299 293 272 243 237 235 221 218 218 218 214 213 207 200 197 201 196 195 190 181 178 178 172 169 163 158 151 153 157 160 162 165 159 157 167 164 166 168 166 169 172 173 167 161 163 158 158 155 141 135 142 147 152 156 166 168 160
154 168 176 168 173 177 209 219 151 179 184 237 166 173 174 198 202 161 194 202 251 294 276 167 142 239 242 241 143 337 310 307 13 60 289 260 241 232 226 222 217 208 202 195 188 196 197 181 173 165 164 162 167 172 165 152 154 157 161 164 165 163 160 162 166 172 174 172 171 171 164 146 135 142 146 145 137 142 139 138 143 149 143 143 140 156
266 189 197 171 168 204 209 180 162 178 202 253 127 106 79 102 116 189 191 198 181 221 264 181 180 261 270 266 275 71 268 311 347 353 353 316 283 259 239 228 217 198 104 182 164 161 164 138 140 146 146 161 172 174 162 152 154 156 163 165 165 166 166 164 168 174 178 175 169 167 156 139 132 129 126 135 137 141 150 145 147 141 145 144 141 142
30 336 166 154 197 210 199 168 165 185 178 92 132 127 103 75 97 87 60 179 176 229 253 120 189 236 284 246 257 298 37 340 330 338 0 354 295 286 288 275 105 116 116 122 106 74 63 100 118 122 149 167 171 170 154 148 158 160 165 166 167 167 165 164 174 177 178 175 172 161 151 140 138 139 138 136 141 142 150 154 153 153 144 149 139 140
315 68 169 220 158 53 159 138 266 275 74 221 114 163 133 120 109 156 116 191 232 255 87 182 206 196 235 227 76 40 4 347 334 321 324 341 359 153 65 91 97 105 88 79 59 64 60 42 47 65 132 178 181 172 169 166 161 169 168 169 170 169 165 166 175 176 175 171 168 151 146 143 145 147 149 150 151 155 160 157 154 145 142 141 127 130
243 231 243 290 230 185 166 210 119 165 188 196 181 205 225 155 155 188 186 206 214 246 90 98 151 175 235 297 23 2 359 358 357 334 304 318 132 116 85 85 104 110 107 107 114 119 146 170 174 172 170 171 182 184 185 183 169 168 171 174 175 172 156 175 169 174 166 160 156 152 151 146 149 152 153 154 152 157 160 161 154 158 158 143 143 142
245 202 280 246 277 208 184 219 162 186 183 175 189 179 178 190 142 223 178 341 307 274 87 235 143 262 330 60 32 7 7 28 39 56 81 83 87 97 103 101 103 108 110 114 125 132 157 152 133 148 172 187 198 199 188 177 167 166 170 183 180 182 156 171 166 153 146 159 151 152 152 149 151 151 155 157 156 157 160 161 162 167 160 164 160 155
234 227 213 159 219 159 196 216 212 232 160 191 143 179 209 173 184 195 198 227 241 277 72 85 174 216 211 80 7 38 39 46 62 77 91 102 102 109 115 115 118 128 149 158 151 143 137 147 146 147 162 173 190 181 167 160 162 148 80 110 218 117 104 114 81 126 158 159 156 158 159 156 154 150 157 154 143 149 155 160 163 164 159 163 155 146
224 259 286 200 2 157 182 198 116 104 117 144 160 37 169 227 142 248 273 257 244 205 180 162 251 1 30 125 66 44 61 59 73 87 94 96 114 118 123 134 141 160 145 120 127 134 146 167 152 166 148 176 190 177 139 144 116 78 80 66 46 68 71 67 23 240 156 164 160 164 165 159 154 134 118 108 122 148 162 162 163 163 160 144 132 115
100 241 320 292 129 206 186 137 196 169 228 158 167 199 213 39 138 91 106 61 70 332 243 70 274 192 165 115 62 63 72 75 77 75 83 93 111 118 118 138 145 131 125 105 128 138 128 139 158 148 163 179 174 162 147 120 107 110 101 88 85 92 111 156 190 177 144 136 142 155 154 141 131 131 144 151 155 160 163 157 153 145 130 121 130 127
223 242 310 151 215 219 350 268 117 276 118 113 210 203 81 175 25 158 231 81 206 243 252 140 241 307 206 180 90 63 72 77 79 87 86 84 76 79 94 108 119 121 110 91 75 88 111 112 120 129 130 162 178 150 113 111 116 129 137 134 138 146 164 181 165 173 164 146 141 143 147 143 152 157 152 148 150 144 143 130 120 121 139 142 127 126
184 278 250 240 327 80 341 164 103 75 312 247 335 136 196 168 204 41 127 227 203 223 259 167 329 261 242 105 118 61 61 60 69 82 82 80 73 71 87 100 98 99 100 83 73 68 73 87 126 124 126 148 129 110 123 135 141 150 158 154 151 163 167 167 161 156 149 150 149 158 163 161 155 149 141 137 131 136 141 147 151 150 136 128 129 130
301 224 262 192 171 7 25 218 208 169 138 100 138 146 12 260 187 173 193 11 265 244 128 204 205 272 172 66 71 70 42 33 78 78 81 78 67 57 55 69 100 100 91 62 60 37 67 81 100 124 138 142 150 132 139 141 153 166 162 163 167 158 147 146 146 149 151 157 151 155 153 157 152 151 148 148 147 151 156 156 148 142 143 133 127 125
167 196 247 75 262 290 177 330 264 174 181 158 195 183 161 53 320 12 67 249 257 192 200 225 237 189 82 60 60 50 24 31 82 103 94 91 90 83 73 70 58 65 66 67 88 112 103 98 112 95 104 122 97 130 145 158 169 168 147 159 165 148 151 153 156 155 152 147 150 148 155 152 150 150 149 153 160 157 155 150 145 145 134 130 132 142
126 186 214 321 288 258 322 350 228 222 290 292 203 196 190 149 165 186 207 92 252 224 193 182 237 88 79 62 71 47 106 163 134 141 110 109 106 96 88 89 87 57 83 86 108 140 137 121 123 122 127 131 141 149 154 172 170 146 152 172 170 148 148 145 148 154 152 159 155 153 150 150 151 153 154 156 159 150 148 145 140 136 139 139 138 154
183 131 136 203 239 338 23 100 54 334 129 98 259 299 14 23 132 201 228 173 159 99 45 21 268 103 0 108 87 121 125 102 120 145 147 95 107 111 99 78 85 80 62 75 64 34 55 58 69 108 147 181 160 141 154 163 169 163 164 175 165 159 156 154 152 150 148 142 145 150 150 144 145 148 154 156 154 152 147 136 136 145 147 143 143 144
148 87 154 298 336 279 266 265 137 100 199 160 80 53 350 208 240 278 273 165 170 126 181 138 233 96 83 94 99 111 96 80 70 79 93 79 74 72 66 52 47 71 47 73 74 74 72 70 67 72 62 36 58 121 138 159 180 184 178 179 168 157 154 151 149 148 147 143 136 132 130 138 145 153 157 154 148 145 139 136 135 143 143 140 140 143
188 230 185 128 154 58 182 195 152 144 103 52 31 28 340 313 164 119 110 335 178 190 275 191 229 140 92 103 110 101 83 70 61 45 50 66 55 58 58 54 44 43 38 36 39 44 72 80 80 69 53 43 60 47 51 126 205 179 157 153 164 157 156 141 146 145 144 138 133 132 133 137 150 155 152 140 132 133 134 134 133 140 143 139 135 131
70 97 174 177 173 176 170 197 207 194 147 322 80 1 35 17 72 178 195 167 228 137 172 212 155 60 121 101 105 99 90 74 66 72 67 58 57 57 54 48 45 48 42 43 39 29 34 52 69 74 73 66 61 76 63 35 102 163 164 150 137 158 144 131 136 130 128 133 134 138 142 143 146 151 141 131 126 130 127 124 125 124 114 129 130 126
109 91 40 178 230 220 138 92 60 347 296 175 348 23 2 356 332 266 46 165 221 151 191 36 71 132 125 117 99 72 81 88 76 67 63 63 64 67 65 60 57 51 47 45 42 32 29 34 34 66 70 71 61 75 83 65 12 61 68 54 68 99 129 125 101 103 113 124 128 137 137 138 140 146 139 126 119 119 122 121 122 122 116 121 127 132
40 81 47 69 52 41 333 289 335 310 99 50 18 1 7 7 351 285 204 226 105 125 206 129 162 133 102 67 74 94 87 85 77 73 72 70 70 71 74 71 62 55 46 46 45 43 42 40 45 66 73 72 68 66 73 69 69 59 64 69 74 77 76 86 100 86 80 86 82 89 110 117 124 124 113 110 109 105 101 100 99 96 99 109 113 120
133 113 264 63 61 50 48 85 103 89 74 76 55 31 24 14 31 57 5 342 325 232 220 148 157 122 63 55 54 52 68 83 81 77 72 76 77 73 67 63 59 55 53 54 51 50 50 46 34 38 46 54 56 56 61 61 59 66 68 71 76 82 87 86 82 87 91 98 95 91 85 87 95 106 113 116 115 110 105 97 92 94 91 89 89 90
112 61 158 89 99 44 34 52 111 112 109 70 48 42 37 46 58 63 57 34 2 22 123 133 104 85 59 54 54 58 70 82 83 79 70 62 60 64 65 62 60 57 57 56 50 39 40 46 51 46 50 49 47 43 45 45 43 55 72 80 79 83 85 83 85 94 95 88 100 106 104 107 105 104 106 110 108 107 107 98 88 90 100 97 97 82
229 150 144 179 101 33 17 43 71 118 124 84 52 39 36 53 61 44 42 21 54 90 99 113 107 88 50 61 78 77 79 81 72 67 64 61 56 58 61 58 50 50 50 52 52 43 37 36 38 43 44 48 47 43 48 46 47 46 44 45 72 82 82 82 78 74 79 90 84 80 98 103 103 93 85 75 80 85 68 67 48 56 53 52 50 59
51 125 145 143 130 128 24 21 67 99 100 92 47 22 11 18 36 16 32 356 343 130 131 116 109 103 108 92 78 72 72 70 68 62 61 60 59 58 59 55 50 46 47 48 46 43 39 35 32 35 38 39 48 48 44 45 47 51 55 54 58 66 73 78 77 78 77 79 70 78 81 81 85 80 75 72 60 67 88 81 71 58 78 108 143 190
100 138 154 156 175 157 51 353 6 307 88 89 19 348 332 333 74 111 52 28 5 301 145 154 84 109 122 113 93 68 68 66 65 59 62 64 61 60 60 61 55 50 44 43 46 42 33 28 22 32 40 47 44 51 53 59 56 46 44 55 54 65 68 67 65 63 59 66 78 81 80 84 76 71 70 76 78 46 53 75 90 96 129 145 155 195
117 124 118 191 175 126 40 332 285 173 197 142 26 342 11 352 341 80 42 5 10 39 102 102 113 109 99 90 88 88 77 68 67 57 50 54 62 59 59 60 59 54 49 50 49 45 37 29 18 18 39 47 45 44 51 58 62 56 51 59 57 60 62 66 60 59 52 46 49 65 81 85 83 80 73 67 83 95 89 95 81 73 62 70 128 110
124 92 88 50 127 140 98 320 181 204 118 121 116 20 30 60 74 83 74 49 65 95 104 95 96 98 101 100 92 83 83 74 58 55 48 48 55 58 55 54 50 50 53 49 48 42 36 31 18 6 31 43 46 34 41 45 49 63 59 58 61 59 64 63 62 54 52 52 44 39 46 66 70 71 67 66 74 76 76 68 65 59 59 71 66 69
135 117 130 67 46 91 128 110 207 44 79 144 88 19 339 258 4 172 68 49 49 84 111 107 112 115 113 109 101 97 90 87 69 45 43 42 42 53 55 53 51 45 51 47 55 51 46 32 24 10 16 25 45 46 47 33 29 61 60 58 60 62 64 66 60 50 46 48 40 40 45 59 66 59 59 62 61 61 65 65 57 55 54 65 67 64
122 104 92 95 352 119 78 83 87 127 138 82 355 21 13 354 342 351 72 30 43 100 130 125 126 123 119 117 120 122 114 87 69 42 27 44 47 41 53 56 53 54 50 53 57 57 45 45 49 28 2 33 47 49 41 25 24 50 57 52 46 56 56 58 53 44 45 48 43 43 44 53 64 60 55 60 65 61 58 61 56 51 47 76 66 62
352 122 195 115 56 82 123 114 126 176 182 73 32 350 344 332 290 256 230 97 73 109 144 136 135 137 134 137 148 144 131 81 70 57 14 30 47 56 50 53 55 50 42 37 41 53 50 41 53 46 28 36 45 41 31 21 27 40 51 45 39 51 54 56 49 41 45 45 41 42 41 42 52 57 54 55 59 63 64 67 71 64 55 74 72 66
35 59 78 81 137 130 142 126 99 161 70 11 324 325 329 334 274 201 228 103 145 143 151 145 134 141 146 152 159 214 230 87 115 121 101 60 66 57 58 52 52 51 47 45 36 41 46 44 50 54 46 40 43 36 36 33 37 42 48 42 40 46 51 49 43 37 40 41 41 42 41 40 44 47 50 51 42 34 42 42 55 70 69 71 73 69
45 14 28 75 58 28 85 89 109 24 50 340 321 323 323 313 261 238 212 84 166 155 154 148 142 147 152 147 172 24 77 127 159 163 143 99 83 75 70 66 53 43 45 56 49 40 45 38 43 40 38 43 40 36 46 47 47 45 44 39 41 47 43 38 34 34 37 40 43 45 42 41 46 44 43 43 40 40 41 31 35 35 47 54 69 76
3 29 24 69 77 57 71 92 99 104 60 335 325 320 315 296 260 247 71 16 154 157 152 147 142 138 138 129 313 97 26 72 111 120 124 109 93 80 75 66 58 49 43 36 47 47 46 45 51 51 39 28 34 32 32 53 60 49 41 38 45 43 32 28 29 31 35 36 39 40 40 39 41 44 44 41 40 41 41 34 35 32 35 36 42 52
36 36 74 26 37 40 6 70 88 88 86 319 322 318 296 277 220 50 351 286 160 153 153 147 142 129 89 82 98 95 99 97 110 118 117 105 98 98 92 83 65 55 50 53 42 50 51 42 45 49 47 33 25 27 26 46 61 54 44 47 46 37 29 32 34 36 37 38 37 34 34 35 35 40 43 37 36 43 44 35 34 35 40 48 53 64
333 35 36 32 320 162 356 94 104 64 65 8 329 302 23 337 33 312 323 141 143 144 146 143 115 112 109 101 103 108 112 116 118 120 122 128 126 119 116 105 87 71 55 54 50 38 51 48 35 35 37 31 29 26 29 47 61 57 53 54 42 35 37 36 41 47 48 45 43 39 37 37 36 36 35 38 40 47 47 37 38 34 34 38 54 63
304 76 103 74 356 39 49 39 46 342 317 341 352 9 347 317 302 297 203 128 116 125 127 93 96 113 119 118 116 111 116 120 122 128 129 129 126 113 102 99 96 91 74 66 68 62 66 69 53 46 34 31 28 27 29 50 58 56 57 51 27 33 41 44 47 53 56 52 49 45 42 39 40 38 36 34 37 47 47 41 40 44 36 30 35 43
358 47 351 91 343 35 57 72 27 5 348 354 3 348 353 344 350 341 94 98 115 81 79 89 99 107 115 119 119 124 125 126 132 137 134 134 130 127 120 110 100 99 93 87 82 68 67 75 74 67 55 37 38 35 37 40 64 66 65 46 41 49 59 57 53 55 58 60 58 55 51 45 41 38 33 29 31 35 35 35 30 42 33 37 41 37
29 72 107 76 85 98 79 56 63 40 39 34 38 24 29 28 24 43 53 69 53 83 95 100 102 108 115 120 117 110 113 124 120 113 113 117 118 111 109 105 95 94 98 103 98 89 88 88 83 81 75 58 48 50 49 48 57 74 68 57 45 45 55 60 62 59 59 59 57 55 61 65 65 57 49 43 42 42 39 34 33 33 30 27 29 28
40 18 38 82 162 267 62 29 48 50 52 63 62 60 56 51 49 59 64 58 69 79 87 80 87 87 83 92 108 116 118 122 116 114 117 120 122 127 124 116 109 110 112 103 99 103 97 92 87 84 81 78 64 66 69 71 65 72 79 77 70 65 65 66 67 65 56 53 54 50 48 50 40 50 51 45 49 53 46 36 33 40 41 36 31 30
91 331 72 54 59 63 93 82 81 79 72 63 60 62 60 60 63 65 78 79 74 70 74 84 88 80 90 96 100 103 108 115 122 126 130 131 132 130 128 127 128 117 100 106 108 99 96 90 88 84 82 82 80 80 76 72 69 67 68 68 68 71 71 68 61 66 65 61 60 54 51 58 46 39 52 45 43 40 42 41 37 47 38 28 22 9
306 297 58 347 97 93 95 103 111 93 69 65 74 78 85 91 83 74 70 74 81 81 75 70 75 93 99 111 111 109 104 102 120 135 131 127 124 120 112 103 99 104 112 105 92 96 99 99 94 92 92 92 91 92 88 85 81 74 70 70 74 82 78 75 68 62 57 52 51 53 51 52 46 41 35 42 47 54 40 30 37 33 39 44 24 17
157 75 121 132 101 112 112 145 201 89 87 77 93 104 108 107 105 104 102 93 90 89 87 84 54 54 89 112 124 121 123 128 122 127 131 129 129 124 119 111 109 105 91 86 94 93 89 80 85 87 91 95 89 89 91 90 86 79 69 61 57 58 66 66 64 59 53 49 49 42 44 44 46 39 38 37 42 59 78 102 70 20 33 38 56 119
25 102 201 61 114 115 118 90 58 100 104 107 119 127 131 134 125 124 124 131 135 137 140 132 136 133 111 77 73 127 128 134 142 137 130 137 131 116 111 126 128 120 103 100 100 79 64 49 40 46 47 33 18 37 41 47 40 41 39 30 28 28 38 38 42 42 38 37 41 27 23 33 31 31 34 35 34 39 36 37 99 122 49 5 352 0